GPS BIIF-6

Last updated on Tue Sep 22 2026 00:03:02 GMT+0000 (Coordinated Universal Time)

1 39741U 14026A 26264.19132889 -.00000070 00000+0 00000+0 0 9994 2 39741 56.4442 327.7764 0039570 324.0684 35.7306 2.00554238 90460
UTC large
Height (km)
Speed (km/s)
/
Latitude / Longitude
Inclination (degrees)
Orbital Period (minutes)
Azimuth
Elevation
Range (km)
Doppler Factor

Next 0 passes for location: London (51.5072 / 0.1276)

No passes found over London.
GPS BIIF-6